CW2931 Weather Reports


Display with metric or nautical units.
time (UTC)temp
F
wind
direction
speed
MPH
gust
MPH
rain 1hr
in
rain 24hr
in
rain mn
in
humidity
%
barometer
mb
20260903212104 72 161 0.0 1.0 0.31 0.35 0.35 87 1014.2
20260903211604 73 161 0.0 2.0 0.31 0.33 0.33 87 1014.0
20260903211104 73 164 1.0 3.0 0.31 0.31 0.31 87 1014.0
20260903205604 73 144 1.0 3.0 0.24 0.24 0.24 85 1014.8
20260903205104 74 187 2.0 5.0 0.22 0.22 0.22 84 1015.3
20260903204603 74 196 1.0 5.0 0.19 0.19 0.19 83 1015.3
20260903204104 75 171 3.0 6.0 0.16 0.16 0.16 82 1015.9
20260903203604 76 184 2.0 5.0 0.13 0.13 0.13 79 1016.1
20260903203104 77 223 1.0 5.0 0.10 0.10 0.10 76 1015.6
20260903202104 80 11 2.0 3.0 0.04 0.04 0.04 73 1013.7
20260903201604 83 1 0.0 23.0 0.02 0.02 0.02 70 1013.5
20260903201104 86 323 0.0 0.0 0.00 0.00 0.00 72 1013.6
20260903200604 87 161 0.0 0.0 0.00 0.00 0.00 71 1010.8
20260903200104 87 119 0.0 0.0 0.00 0.00 0.00 71 1010.5
20260903195604 87 176 0.0 0.0 0.00 0.00 0.00 70 1010.3
20260903195104 88 173 0.0 0.0 0.00 0.00 0.00 70 1010.3
20260903194604 88 157 0.0 0.0 0.00 0.00 0.00 69 1010.7
20260903194104 88 121 0.0 0.0 0.00 0.00 0.00 69 1010.1
20260903193604 89 82 0.0 0.0 0.00 0.00 0.00 69 1010.5
20260903193104 89 190 0.0 1.0 0.00 0.00 0.00 68 1010.2
20260903192604 89 181 2.0 3.0 0.00 0.00 0.00 68 1010.6
20260903192104 89 169 3.0 6.0 0.00 0.00 0.00 68 1010.6
20260903191603 89 215 3.0 5.0 0.00 0.00 0.00 68 1010.8
20260903190604 89 201 3.0 5.0 0.00 0.00 0.00 66 1011.2
20260903190104 89 243 3.0 6.0 0.00 0.00 0.00 67 1011.2
20260903185604 89 172 3.0 5.0 0.00 0.00 0.00 66 1011.4
20260903184604 89 184 2.0 6.0 0.00 0.00 0.00 66 1011.6
20260903183604 90 156 2.0 6.0 0.00 0.00 0.00 65 1011.8
20260903183104 90 159 2.0 6.0 0.00 0.00 0.00 65 1011.9
20260903182104 89 131 0.0 0.0 0.00 0.00 0.00 66 1011.7
20260903181604 89 142 0.0 0.0 0.00 0.00 0.00 66 1011.7
20260903181105 89 93 0.0 0.0 0.00 0.00 0.00 66 1011.7
20260903180604 89 129 0.0 0.0 0.00 0.00 0.00 67 1011.7
20260903180104 88 144 0.0 0.0 0.00 0.00 0.00 69 1011.8
20260903175604 88 95 0.0 0.0 0.00 0.00 0.00 69 1011.8
20260903175104 87 173 0.0 0.0 0.00 0.00 0.00 71 1011.9
20260903174605 86 127 0.0 2.0 0.00 0.00 0.00 73 1012.1
20260903174104 85 72 1.0 3.0 0.00 0.00 0.00 74 1012.2
20260903173604 84 159 0.0 0.0 0.00 0.00 0.00 74 1012.3
20260903173104 84 100 0.0 0.0 0.00 0.00 0.00 76 1012.2
20260903172604 84 99 0.0 0.0 0.00 0.00 0.00 78 1012.2
20260903172104 83 64 0.0 0.0 0.00 0.00 0.00 78 1012.1
20260903171604 83 91 0.0 0.0 0.00 0.00 0.00 80 1012.1
20260903171104 83 155 0.0 0.0 0.00 0.00 0.00 82 1012.1
20260903170603 82 168 0.0 0.0 0.00 0.00 0.00 84 1012.0
20260903170104 81 140 0.0 0.0 0.00 0.00 0.00 85 1012.1
20260903165604 81 131 0.0 0.0 0.00 0.00 0.00 86 1012.3
20260903165104 81 114 0.0 0.0 0.00 0.00 0.00 87 1012.5
20260903164604 80 26 1.0 3.0 0.00 0.00 0.00 87 1012.7
20260903164104 81 15 1.0 3.0 0.00 0.00 0.00 87 1012.9
20260903163604 81 25 2.0 5.0 0.00 0.00 0.00 87 1013.1
20260903163104 81 218 0.0 2.0 0.00 0.00 0.00 87 1013.2
20260903162604 81 230 0.0 1.0 0.00 0.00 0.00 87 1013.3
20260903162104 81 230 0.0 1.0 0.00 0.00 0.00 87 1013.5
20260903161604 81 230 0.0 1.0 0.00 0.00 0.00 86 1013.5
20260903161104 81 230 0.0 1.0 0.00 0.00 0.00 86 1013.6
20260903160604 81 223 0.0 0.0 0.00 0.00 0.00 86 1013.8
20260903160104 81 223 0.0 1.0 0.00 0.00 0.00 86 1013.8
20260903155604 81 223 0.0 1.0 0.00 0.00 0.00 86 1013.6
20260903155104 81 223 0.0 0.0 0.00 0.00 0.00 86 1013.3
20260903154604 81 223 0.0 0.0 0.00 0.00 0.00 86 1013.1
20260903153105 81 223 0.0 1.0 0.00 0.00 0.00 85 1012.8
20260903152604 81 222 0.0 1.0 0.00 0.00 0.00 85 1012.7
20260903151604 81 208 0.0 0.0 0.00 0.00 0.00 85 1012.8
20260903151103 81 243 0.0 0.0 0.00 0.00 0.00 85 1012.6
20260903150604 81 242 0.0 0.0 0.00 0.00 0.00 85 1012.8
20260903150104 81 220 0.0 0.0 0.00 0.00 0.00 84 1012.4
20260903145604 81 220 0.0 0.0 0.00 0.00 0.00 84 1012.4
20260903144604 81 218 0.0 0.0 0.00 0.00 0.00 84 1012.6
20260903144104 81 196 0.0 0.0 0.00 0.00 0.00 84 1012.7
20260903143603 81 196 0.0 0.0 0.00 0.00 0.00 84 1012.6
20260903142604 81 202 0.0 0.0 0.00 0.00 0.00 85 1012.5
20260903141604 81 202 1.0 2.0 0.00 0.00 0.00 85 1012.4
20260903141104 81 198 1.0 3.0 0.00 0.00 0.00 85 1012.2
20260903140603 81 194 0.0 1.0 0.00 0.00 0.00 86 1012.2
20260903135604 81 204 0.0 3.0 0.00 0.00 0.00 87 1012.3
20260903135104 81 199 0.0 1.0 0.00 0.00 0.00 87 1012.5
20260903134104 80 248 1.0 2.0 0.00 0.00 0.00 88 1012.5
20260903133605 80 178 0.0 0.0 0.00 0.00 0.00 88 1012.3
20260903133104 79 225 0.0 0.0 0.00 0.00 0.00 88 1012.4
20260903132603 79 228 0.0 2.0 0.00 0.00 0.00 88 1012.7
20260903132103 79 233 1.0 3.0 0.00 0.00 0.00 88 1012.7
20260903131603 78 181 2.0 3.0 0.00 0.00 0.00 88 1012.7
20260903131104 78 244 1.0 3.0 0.00 0.00 0.00 88 1012.6
20260903130604 78 244 0.0 0.0 0.00 0.00 0.00 88 1012.6
20260903125604 77 198 1.0 2.0 0.00 0.00 0.00 88 1012.7
20260903125104 77 197 1.0 3.0 0.00 0.00 0.00 88 1012.8
20260903124604 77 197 2.0 3.0 0.00 0.00 0.00 88 1012.8
20260903124104 76 198 0.0 3.0 0.00 0.00 0.00 88 1012.9
20260903123604 75 153 1.0 3.0 0.00 0.00 0.00 87 1012.9
20260903122104 74 156 0.0 0.0 0.00 0.00 0.00 86 1012.9
20260903121604 74 156 0.0 0.0 0.00 0.00 0.00 86 1012.9
20260903121104 74 156 0.0 0.0 0.00 0.00 0.00 85 1012.9
20260903120604 74 156 0.0 0.0 0.00 0.00 0.00 84 1012.8
20260903120104 74 156 0.0 0.0 0.00 0.00 0.00 84 1012.8
20260903115603 74 156 0.0 0.0 0.00 0.00 0.00 84 1012.8
20260903115104 74 156 0.0 0.0 0.00 0.00 0.00 84 1012.8
20260903114604 74 156 0.0 0.0 0.00 0.00 0.00 84 1012.8
20260903114104 74 156 0.0 0.0 0.00 0.00 0.00 84 1012.8
20260903113605 74 156 0.0 0.0 0.00 0.00 0.00 84 1012.8
20260903113108 74 156 0.0 0.0 0.00 0.00 0.00 84 1012.8
20260903112604 74 156 0.0 0.0 0.00 0.00 0.00 84 1012.8
20260903112104 74 156 0.0 0.0 0.00 0.00 0.00 84 1012.8
20260903111604 74 156 0.0 0.0 0.00 0.00 0.00 83 1012.7
20260903111104 74 156 0.0 0.0 0.00 0.00 0.00 83 1012.6
20260903110604 74 156 0.0 0.0 0.00 0.00 0.00 83 1012.6
20260903110103 74 156 0.0 0.0 0.00 0.00 0.00 83 1012.4
20260903105603 74 156 0.0 0.0 0.00 0.00 0.00 83 1012.3
20260903105103 74 156 0.0 0.0 0.00 0.00 0.00 83 1012.3
20260903104603 75 156 0.0 0.0 0.00 0.00 0.00 83 1012.3
20260903104104 75 156 0.0 0.0 0.00 0.00 0.00 83 1012.3
20260903103604 75 156 0.0 0.0 0.00 0.00 0.00 83 1012.3
20260903103104 75 156 0.0 0.0 0.00 0.00 0.00 83 1012.3
20260903102604 75 156 0.0 0.0 0.00 0.00 0.00 83 1012.3
20260903102104 75 156 0.0 0.0 0.00 0.00 0.00 83 1012.3
20260903101603 75 156 0.0 0.0 0.00 0.00 0.00 83 1012.2
20260903101103 75 156 0.0 1.0 0.00 0.00 0.00 83 1012.3
20260903100605 75 156 0.0 0.0 0.00 0.00 0.00 83 1012.2
20260903100104 75 156 0.0 0.0 0.00 0.00 0.00 83 1012.2
20260903095604 75 156 0.0 0.0 0.00 0.00 0.00 83 1012.2
20260903094104 76 156 0.0 2.0 0.00 0.00 0.00 83 1012.2
20260903093604 76 156 0.0 2.0 0.00 0.00 0.00 83 1012.2
20260903093104 76 155 1.0 3.0 0.00 0.00 0.00 83 1012.2
20260903092604 76 169 0.0 2.0 0.00 0.00 0.00 83 1012.2
20260903092104 76 166 0.0 2.0 0.00 0.00 0.00 83 1012.1
20260903091603 76 166 0.0 1.0 0.00 0.00 0.00 83 1012.1
20260903091103 76 166 0.0 2.0 0.00 0.00 0.00 83 1012.0
20260903090606 76 167 1.0 2.0 0.00 0.00 0.00 83 1011.9
20260903090104 76 167 1.0 2.0 0.00 0.00 0.00 83 1011.9
20260903085104 76 167 0.0 1.0 0.00 0.00 0.00 82 1011.9
20260903084604 75 167 0.0 1.0 0.00 0.00 0.00 82 1011.9
20260903084104 75 167 0.0 2.0 0.00 0.00 0.00 83 1011.8
20260903083104 75 165 1.0 2.0 0.00 0.00 0.00 82 1011.9
20260903082604 75 165 0.0 2.0 0.00 0.00 0.00 83 1012.1
20260903082105 75 165 2.0 3.0 0.00 0.00 0.00 83 1011.9
20260903081604 75 172 1.0 5.0 0.00 0.00 0.00 83 1011.8
20260903081104 75 175 3.0 5.0 0.00 0.00 0.00 83 1011.8
20260903080604 75 197 2.0 3.0 0.00 0.00 0.00 83 1012.1
20260903080104 75 25 1.0 3.0 0.00 0.00 0.00 83 1012.2
20260903075604 75 25 0.0 1.0 0.00 0.00 0.00 83 1012.3
20260903075104 75 25 0.0 1.0 0.00 0.00 0.00 83 1012.5
20260903074604 75 25 1.0 1.0 0.00 0.00 0.00 82 1012.2
20260903073103 75 24 0.0 1.0 0.00 0.00 0.00 82 1012.0
20260903072603 75 24 0.0 1.0 0.00 0.00 0.00 82 1012.2
20260903072103 75 24 0.0 2.0 0.00 0.00 0.00 82 1012.2
20260903071604 75 24 1.0 2.0 0.00 0.00 0.00 82 1012.3
20260903071107 75 24 0.0 1.0 0.00 0.00 0.00 82 1012.3
20260903070604 75 24 1.0 1.0 0.00 0.00 0.00 81 1012.2
20260903065603 75 24 0.0 0.0 0.00 0.00 0.00 81 1012.3
20260903065103 75 24 1.0 2.0 0.00 0.00 0.00 81 1012.1
20260903064603 75 24 1.0 2.0 0.00 0.00 0.00 80 1011.8
20260903064103 75 24 0.0 1.0 0.00 0.00 0.00 79 1011.6
20260903063604 75 24 0.0 0.0 0.00 0.00 0.00 79 1011.2
20260903063104 75 24 0.0 2.0 0.00 0.00 0.00 79 1011.2
20260903062604 75 24 0.0 1.0 0.00 0.00 0.00 79 1011.3
20260903062105 75 24 0.0 1.0 0.00 0.00 0.00 79 1011.4
20260903061605 75 24 0.0 0.0 0.00 0.00 0.00 79 1011.6
20260903061104 76 24 0.0 0.0 0.00 0.00 0.00 79 1011.7
20260903060604 76 24 0.0 1.0 0.00 0.00 0.00 79 1011.7
20260903060104 76 24 0.0 1.0 0.00 0.00 0.00 78 1011.7
20260903055605 76 24 0.0 0.0 0.00 0.00 0.00 78 1011.8
20260903054605 76 24 1.0 2.0 0.00 0.00 0.00 77 1011.8
20260903054105 76 24 0.0 0.0 0.00 0.00 0.00 77 1011.8
20260903053604 76 24 0.0 0.0 0.00 0.00 0.00 77 1011.9
20260903053104 76 24 0.0 0.0 0.00 0.00 0.00 77 1011.9
20260903052605 76 24 0.0 1.0 0.00 0.00 0.00 77 1011.8
20260903052104 76 24 0.0 0.0 0.00 0.00 0.00 77 1011.7
20260903051605 76 24 0.0 0.0 0.00 0.00 0.00 77 1011.7
20260903051107 76 24 0.0 2.0 0.00 0.00 0.00 77 1011.6
20260903050604 76 23 1.0 3.0 0.00 0.00 0.00 76 1011.3
20260903050104 76 23 2.0 3.0 0.00 0.00 0.00 76 1011.5
20260903045604 77 22 1.0 2.0 0.00 0.00 0.00 76 1011.7
20260903045104 77 22 1.0 3.0 0.00 0.00 0.00 75 1011.7
20260903044604 77 20 0.0 0.0 0.00 0.00 0.00 75 1011.9
20260903044104 77 20 0.0 0.0 0.00 0.00 0.00 74 1011.9
20260903043605 77 20 0.0 1.0 0.00 0.00 0.00 74 1012.0
20260903043105 77 20 0.0 2.0 0.00 0.00 0.00 74 1012.0
20260903042605 77 20 0.0 2.0 0.00 0.00 0.00 73 1012.3
20260903042105 78 20 1.0 3.0 0.00 0.00 0.00 73 1012.4
20260903040604 78 23 1.0 9.0 0.00 0.00 0.00 70 1012.3
20260903040105 79 343 2.0 5.0 0.00 0.00 0.00 69 1012.7
20260903035605 79 331 2.0 5.0 0.00 0.00 0.00 68 1012.9
20260903035104 80 13 3.0 5.0 0.00 0.00 0.00 66 1012.8
20260903034604 80 338 3.0 9.0 0.00 0.00 0.00 65 1012.5
20260903033604 81 292 4.0 16.0 0.00 0.00 0.00 62 1012.6
20260903033104 82 324 5.0 12.0 0.00 0.00 0.00 63 1012.8
20260903032605 83 17 6.0 20.0 0.00 0.00 0.00 66 1012.6
20260903032104 85 325 1.0 3.0 0.00 0.00 0.00 76 1012.6
20260903031604 85 236 1.0 2.0 0.00 0.00 0.00 75 1011.2
20260903031105 85 230 0.0 2.0 0.00 0.00 0.00 75 1010.7
20260903030604 85 230 2.0 7.0 0.00 0.00 0.00 75 1010.5
20260903030105 85 230 2.0 3.0 0.00 0.00 0.00 75 1010.5
20260903025604 85 238 4.0 10.0 0.00 0.00 0.00 75 1010.1
20260903025105 85 209 3.0 7.0 0.00 0.00 0.00 75 1010.2
20260903024605 85 218 2.0 13.0 0.00 0.00 0.00 74 1010.0
20260903023605 85 225 3.0 7.0 0.00 0.00 0.00 74 1009.5
20260903022604 86 212 2.0 6.0 0.00 0.00 0.00 73 1010.1
20260903022105 86 226 2.0 6.0 0.00 0.00 0.00 72 1010.5
20260903021604 86 201 2.0 3.0 0.00 0.00 0.00 72 1010.6
20260903021104 86 210 3.0 5.0 0.00 0.00 0.00 72 1010.9
20260903020605 86 212 2.0 5.0 0.00 0.00 0.00 71 1010.9
20260903020105 87 227 2.0 6.0 0.00 0.00 0.00 71 1011.0
20260903015605 87 231 2.0 7.0 0.00 0.00 0.00 70 1010.9
20260903015104 87 206 1.0 3.0 0.00 0.00 0.00 70 1010.7
20260903014604 87 199 2.0 5.0 0.00 0.00 0.00 70 1010.7
20260903014104 87 226 3.0 6.0 0.00 0.00 0.00 69 1010.8
20260903012605 87 211 2.0 5.0 0.00 0.00 0.00 68 1010.7
20260903012105 88 238 2.0 6.0 0.00 0.00 0.00 68 1010.7
20260903011104 88 239 2.0 6.0 0.00 0.00 0.00 67 1010.7
20260903010604 88 230 2.0 6.0 0.00 0.00 0.00 66 1010.6
20260903010105 88 216 0.0 0.0 0.00 0.00 0.00 66 1010.6
20260903005604 88 212 0.0 0.0 0.00 0.00 0.00 66 1010.6
20260903005104 89 235 0.0 0.0 0.00 0.00 0.00 65 1010.5
20260903004604 89 233 0.0 0.0 0.00 0.00 0.00 65 1010.4
20260903004105 89 223 0.0 0.0 0.00 0.00 0.00 64 1010.2
20260903003604 89 199 0.0 0.0 0.00 0.00 0.00 64 1010.2
20260903003104 89 249 0.0 0.0 0.00 0.00 0.00 63 1010.2
20260903002604 89 229 0.0 0.0 0.00 0.00 0.00 63 1010.2
20260903002104 90 233 0.0 3.0 0.00 0.00 0.00 62 1010.2
20260903001604 90 231 2.0 5.0 0.00 0.00 0.00 61 1010.2
20260903001105 90 221 4.0 12.0 0.00 0.00 0.00 61 1010.2
20260903000604 90 249 2.0 9.0 0.00 0.00 0.00 60 1010.3
20260903000105 91 240 2.0 9.0 0.00 0.00 0.00 59 1010.4
20260902235604 91 227 3.0 10.0 0.00 0.00 0.00 59 1010.5
20260902235104 91 199 2.0 7.0 0.00 0.00 0.00 58 1010.5
20260902234604 91 245 3.0 9.0 0.00 0.00 0.00 57 1010.5
20260902233604 92 216 3.0 6.0 0.00 0.00 0.00 56 1010.5
20260902233105 92 239 3.0 7.0 0.00 0.00 0.00 56 1010.5
20260902232606 92 231 4.0 12.0 0.00 0.00 0.00 55 1010.6
20260902231604 93 239 3.0 12.0 0.00 0.00 0.00 54 1010.6
20260902230605 94 257 4.0 9.0 0.00 0.00 0.00 53 1010.5
20260902230104 94 277 3.0 9.0 0.00 0.00 0.00 53 1010.2
20260902225604 94 284 3.0 12.0 0.00 0.00 0.00 52 1010.1
20260902225105 94 244 4.0 10.0 0.00 0.00 0.00 52 1010.1
20260902224604 94 211 5.0 9.0 0.00 0.00 0.00 51 1010.1
20260902224104 95 222 3.0 7.0 0.00 0.00 0.00 51 1010.1
20260902223104 95 227 2.0 7.0 0.00 0.00 0.00 50 1010.2
20260902222604 95 228 6.0 13.0 0.00 0.00 0.00 50 1010.2
20260902222105 95 227 6.0 13.0 0.00 0.00 0.00 49 1010.1
20260902221604 95 235 3.0 7.0 0.00 0.00 0.00 49 1010.1
20260902221104 95 221 6.0 15.0 0.00 0.00 0.00 48 1010.1
20260902220105 95 241 5.0 12.0 0.00 0.00 0.00 50 1010.2
20260902215104 95 195 3.0 10.0 0.00 0.00 0.00 50 1010.2
20260902214604 95 236 6.0 14.0 0.00 0.00 0.00 49 1010.3
20260902214104 95 252 7.0 14.0 0.00 0.00 0.00 49 1010.4
20260902213104 95 245 4.0 10.0 0.00 0.00 0.00 48 1010.4
20260902212604 95 239 6.0 14.0 0.00 0.00 0.00 48 1010.4